Regional Weather Roundup
Issued by NWS Grand Forks, ND

Home | Current Version | Previous Version | Graphics & Text | Print | Product List | Glossary On
Versions: 1 2 3 4 5 6 7 8 9 10 11 12 13 14 15 16 17 18 19 20 21 22 23 24 25 26 27 28 29 30 31 32 33 34 35 36 37 38 39 40 41 42 43 44 45 46 47 48 49 50
000
ASUS43 KFGF 021131
RWRFGF
PRAIRIE TO PINES  WEATHER ROUNDUP
NATIONAL WEATHER SERVICE EASTERN NORTH DAKOTA/GRAND FORKS ND
600 AM CDT WED SEP 02 2015

 **SATELLITE DATA USED TO AUGMENT SKY COVER AT AUTOMATED STATIONS**
 *****  WEATHER ACROSS EASTERN NORTH DAKOTA  *****

CITY           SKY/WX    TMP DP  RH WIND       PRES   REMARKS
GRAND FORKS    FOG       66  64  94 S10       29.82S VSB 1/4
GRAND FRKS AFB FOG       66  64  94 S8        29.82S VSB 1/2
GRAND FRKS NWS   N/A     64 N/A N/A S5          N/A
DEVILS LAKE    CLEAR     66  61  82 SE7       29.79S
FARGO          CLEAR     69  66  90 SE9       29.83F
WAHPETON ARPT  SUNNY     63  61  94 SE8       29.85S
$$

 ***** WEATHER ACROSS CENTRAL AND WESTERN NORTH DAKOTA  *****

CITY           SKY/WX    TMP DP  RH WIND       PRES   REMARKS
BISMARCK       CLEAR     62  61  96 E5        29.80R
MINOT          CLEAR     62  59  90 SE5       29.77S
JAMESTOWN      CLEAR     64  61  90 SE6       29.82R
MINOT AFB      CLEAR     57  57  99 CALM      29.77R
GARRISON         N/A     58  56  93 E3        29.78F
WILLISTON      CLEAR     57  45  64 N6        29.77S
DICKINSON      CLEAR     59  52  77 S8        29.79F
HETTINGER      PTCLDY    50  47  89 SW6       29.82F
$$

 *****  OTHER AIRPORT OBSERVATIONS IN OUR AREA  *****

CITY           SKY/WX    TMP DP  RH WIND       PRES   REMARKS
WALHALLA       NOT AVBL
GRAFTON AIRPOR FAIR      61  61 100 CALM      29.82S
VALLEY CITY AR FAIR      64  64 100 S6        29.83S
CANDO          FOG       61  61 100 SE6       29.81R VSB 1/4
CAVALIER APRT  FAIR      63  59  88 S7        29.81R
GWINNER          N/A     61  61 100 NE3       29.82S
SHEYENNE NWR     N/A     63  62  97 E6        29.95S
ROLLA          FAIR      63  63 100 S7        29.82S
 ***** THE ABOVE OBSERVATIONS ARE NON NWS ARE NOT QUALITY
       CONTROLLED AND MAY MIS-REPORT RAIN FOR SNOW...
$$

  *****  WEATHER ACROSS NORTHERN MINNESOTA  *****

CITY           SKY/WX    TMP DP  RH WIND       PRES   REMARKS
FLAG ISLAND    PTCLDY    66  59  77 SE6       29.87S
WARROAD        CLEAR     61  57  88 SE3       29.88S
ROSEAU         CLEAR     63  57  82 S5        29.86S
HALLOCK        CLEAR     66  64  94 SE9       29.82R
THF RVR FALLS  CLEAR     61  59  94 SE6       29.86S
BAUDETTE       CLEAR     59  54  83 E6        29.88F
WASKISH        CLEAR     61  57  88 CALM      29.90R
CROOKSTON      CLEAR     70  66  88 S9        29.85R
STEPHEN NDAWN    N/A     66  64  94 SE7         N/A
GREENBUSH NDAW   N/A     63  63 100 S5          N/A
$$
  *****  WEATHER ACROSS CENTRAL AND WEST MINNESOTA  *****

CITY           SKY/WX    TMP DP  RH WIND       PRES   REMARKS
FOSSTON        CLEAR     66  64  94 SE5       29.89R FOG
BEMIDJI        FOG       61  60  98 CALM      29.91R VSB 1/2
PARK RAPIDS    FOG       67  65  93 CALM      29.91R VSB 1/4
ELBOW LAKE     FAIR      64  62  93 SE7       29.87S
WADENA         FOG       61  61 100 CALM      29.90R VSB<1/4
DETROIT LAKES  CLEAR     68  66  94 SE5       29.90S FOG
MOORHEAD       CLEAR     66  64  94 SE8       29.85S
FERGUS FALLS   CLEAR     66  64  94 SE3       29.87S
MORRIS MN      PTCLDY    63  63 100 SE5       29.86S
STAPLES        MOCLDY    66  66 100 E3        29.91R FOG
$$
  *****  WEATHER ELSEWHERE ACROSS MINNESOTA  *****

CITY           SKY/WX    TMP DP  RH WIND       PRES   REMARKS
DULUTH         LGT RAIN  68  65  90 E5        29.95R FOG
INTRNTL FALLS  CLEAR     55  53  93 SE3       29.92S
ELY            PTCLDY    54  52  94 CALM      29.97S
CLOQUET        CLOUDY    68  66  94 E3        29.95S FOG
WHEATON        CLEAR     57  57 100 SE6       29.87S
BRAINERD       MOCLDY    71  70  96 S5        29.92R FOG
HIBBING        MOCLDY    64  60  87 CALM      29.94S
ALEXANDRIA     PTCLDY    66  64  93 SE8       29.90S
SAINT CLOUD    CLOUDY    68  67  96 E6        29.89F
MINNEAPOLIS    CLOUDY    70  67  90 NE5       29.91F FOG
$$

  *****  WEATHER ACROSS SOUTH DAKOTA  *****

CITY           SKY/WX    TMP DP  RH WIND       PRES   REMARKS
SIOUX FALLS    CLEAR     68  65  90 E7        29.86R
BROOKINGS      CLEAR     64  63  94 SE8       29.87S
WATERTOWN      CLEAR     65  62  90 SE6       29.84F
HURON          CLEAR     68  66  93 SE9       29.78F
SISSETON         N/A     63  61  93 S7        29.83S
ABERDEEN       CLEAR     64  62  93 E3        29.79F
MITCHELL       CLEAR     68  66  93 SE7       29.80F
PIERRE         FOG       58  58 100 CALM      29.76F VSB 1/4
MOBRIDGE       FOG       60  60 100 CALM      29.77S VSB 1
RAPID CITY     PTCLDY    60  47  61 NW5       29.85S
$$

  *****  SOME WEATHER IN NEARBY STATES *****

CITY           SKY/WX    TMP DP  RH WIND       PRES   REMARKS
GLASGOW MT     CLEAR     61  39  44 E14       29.70F
GREAT FALLS MT PTCLDY    51  33  50 SW9       29.72F
CHEYENNE WY    PTCLDY    65  40  39 W12       30.11S
SCOTTSBLUFF NE PTCLDY    56  50  80 N5        29.97S
OMAHA NE       PTCLDY    74  69  85 S9        29.90S
DES MOINES IA  TSTM      72  67  84 SW9       29.99R
DAVENPORT IA   CLEAR     70  67  90 S5        30.03R
CHICAGO IL     PTCLDY    73  68  84 SW7       30.03R
EAU CLAIRE WI  CLOUDY    73  70  90 SW5       29.95R
LA CROSSE WI   MOCLDY    75  70  84 SE9       29.96R
$$

  *****  SOME NATIONAL WEATHER *****

CITY           SKY/WX    TMP DP  RH WIND       PRES   REMARKS
LA GUARDIA NY  PTCLDY    75  66  73 S5        30.02R
RALEIGH NC     PTCLDY    69  67  93 CALM      30.08R FOG
ATLANTA GA     PTCLDY    73  67  81 CALM      30.12R
NEW ORLEANS LA CLOUDY    79  71  76 CALM      30.05R
OKLAHOMA CITY  PTCLDY    68  65  90 S6        30.04R
ALBUQUERQUE NM PTCLDY    67  44  43 SE6       30.19S
SALT LAKE CITY MOCLDY    77  41  27 S16       29.97R
LOS ANGELES CA CLOUDY    69  60  73 SE6       29.95S
BOISE ID       MOCLDY    65  37  35 SE9       29.80R
SEATTLE WA     CLOUDY    57  53  86 S13       29.82R
$$

*** WEATHER ACROSS MANITOBA...SASKATCHEWAN AND ONTARIO ***
                ***ONTARIO***

CITY           SKY/WX    TMP DP  RH WIND       PRES   REMARKS
GERALDTON      PTCLDY    55  54  94 W5        29.96R
THUNDER BAY    PTCLDY    52  50  93 SW6       29.98R
SIOUX LOOKOUT  CLEAR     52  50  93 VRB2      29.94S
TORONTO        PTCLDY    70  64  83 VRB2      30.03S
BIG TROUT LK   CLEAR     52  50  93 E6        29.88R
PICKLE LAKE    PTCLDY    57  52  82 S6        29.93
DRYDEN         CLEAR     63  54  72 SE3       29.93F
KENORA         PTCLDY    63  54  72 S7        29.90S
$$
                *** MANITOBA***

CITY           SKY/WX    TMP DP  RH WIND       PRES   REMARKS
BRANDON        CLEAR     57  54  88 NE2       29.78F
DAUPHIN        CLEAR     57  54  88 W7        29.76S
ISLAND LAKE    PTCLDY    57  55  94 E2        29.80S
PILOT MOUND      N/A     61  59  94 S5          N/A
THE PAS        PTCLDY    63  52  67 N8        29.76R
THOMPSON       CLOUDY    54  52  94 E3        29.74
WINNIPEG       CLEAR     64  59  82 S9        29.80S
LYNN LAKE      CLEAR     48  45  87 NW8       29.76R
CHURCHILL      DRIZZLE   48  46  93 SE8G18    29.87S
$$
                ***SASKATCHEWAN***

CITY           SKY/WX    TMP DP  RH WIND       PRES   REMARKS
ESTEVAN        PTCLDY    50  45  81 E7        29.79R
KINDERSLEY     MOCLDY    54  39  58 SE9       29.65F
LLOYDMINSTER   MOCLDY    52  43  71 E14       29.65F
PRINCE ALBERT  PTCLDY    45  43  93 E7        29.76R
REGINA         PTCLDY    50  45  81 SE8       29.76F
YORKTON        CLEAR     50  46  87 CALM      29.78F
N. BATTLEFORD  CLEAR     50  43  76 SE17      29.70F
LA RONGE       MOCLDY    43  39  87 CALM      29.79F
SASKATOON      PTCLDY    57  45  62 E8        29.74R
SWIFT CURRENT  MOCLDY    59  34  38 S10       29.70F
$$
NOTE: THESE ARE AUTOMATED STATIONS WITH LIMITED QUALITY CONTROL
      "FAIR" INDICATES FEW OR NO CLOUDS BELOW 12,000 FEET WITH NO
      SIGNIFICANT WEATHER AND/OR OBSTRUCTIONS TO VISIBILITY.
      SKY/WX - SKY CONDITION AND SIGNIFICANT WEATHER.
      TMP - AIR TEMPERATURE.    DP   - DEWPOINT TEMPERATURE.
      RH  - RELATIVE HUMIDITY.  PRES - PRESSURE.
      HX  - HEAT INDEX.         WCI  - WIND CHILL INDEX.
$



USA.gov is the U.S. government's official web portal to all federal, state and local government web resources and services.